Time,TemperatureF,DewpointF,PressureIn,WindDirection,WindDirectionDegrees,WindSpeedMPH,WindSpeedGustMPH,Humidity,HourlyPrecipIn,Conditions,Clouds,dailyrainin,SoftwareType,DateUTC
2013-02-04 05:33:00,46.0,42.0,30.01,ENE,69,0.0,0.0,87,0.00,,,0.00,,2013-02-04 11:33:00,
2013-02-04 05:42:00,46.0,42.0,30.01,ENE,69,0.0,0.0,87,0.00,,,0.00,,2013-02-04 11:42:00,
2013-02-04 05:52:00,47.0,43.0,30.02,ENE,69,0.0,0.0,87,0.00,,,0.00,,2013-02-04 11:52:00,
2013-02-04 06:02:00,47.0,43.0,30.01,ENE,69,0.0,0.0,87,0.00,,,0.00,,2013-02-04 12:02:00,
2013-02-04 06:12:00,47.0,43.0,30.01,ENE,69,0.0,0.0,87,0.00,,,0.00,,2013-02-04 12:12:00,
2013-02-04 06:22:00,47.0,43.0,30.01,ENE,69,0.0,0.0,87,0.00,,,0.00,,2013-02-04 12:22:00,
2013-02-04 06:32:00,48.0,44.0,30.02,ENE,69,0.0,0.0,86,0.00,,,0.00,,2013-02-04 12:32:00,
2013-02-04 06:42:00,48.0,44.0,30.02,ENE,69,0.0,0.0,86,0.00,,,0.00,,2013-02-04 12:42:00,
2013-02-04 06:53:00,48.0,44.0,30.02,ENE,69,0.0,0.0,87,0.00,,,0.00,,2013-02-04 12:53:00,
2013-02-04 07:02:00,48.0,44.0,30.01,ENE,69,0.0,0.0,86,0.00,,,0.00,,2013-02-04 13:02:00,
2013-02-04 07:12:00,49.0,45.0,30.02,ENE,69,0.0,0.0,86,0.00,,,0.00,,2013-02-04 13:12:00,
2013-02-04 07:21:00,49.0,45.0,30.02,ENE,69,0.0,0.0,86,0.00,,,0.00,,2013-02-04 13:21:00,
2013-02-04 07:33:00,49.0,45.0,30.03,ENE,69,0.0,0.0,87,0.00,,,0.00,,2013-02-04 13:33:00,
2013-02-04 07:42:00,49.0,45.0,30.03,ENE,69,0.0,0.0,87,0.00,,,0.00,,2013-02-04 13:42:00,
2013-02-04 07:52:00,49.0,45.0,30.02,ENE,69,0.0,0.0,87,0.00,,,0.00,,2013-02-04 13:52:00,
2013-02-04 08:03:00,50.0,46.0,30.02,ENE,69,0.0,0.0,86,0.00,,,0.00,,2013-02-04 14:03:00,
2013-02-04 08:11:00,50.0,46.0,30.02,ENE,69,0.0,0.0,86,0.00,,,0.00,,2013-02-04 14:11:00,
2013-02-04 08:22:00,50.0,46.0,30.02,ENE,69,0.0,0.0,86,0.00,,,0.00,,2013-02-04 14:22:00,
2013-02-04 08:32:00,51.0,47.0,30.02,ENE,69,0.0,0.0,87,0.00,,,0.00,,2013-02-04 14:32:00,
2013-02-04 08:42:00,51.0,47.0,30.02,ENE,69,0.0,0.0,87,0.00,,,0.00,,2013-02-04 14:42:00,
2013-02-04 08:52:00,52.0,48.0,30.02,ENE,69,0.0,0.0,87,0.00,,,0.00,,2013-02-04 14:52:00,
2013-02-04 09:03:00,53.0,49.0,30.02,ENE,72,0.0,0.0,87,0.00,,,0.00,,2013-02-04 15:03:00,
2013-02-04 09:12:00,53.0,49.0,30.02,ENE,72,0.0,0.0,87,0.00,,,0.00,,2013-02-04 15:12:00,
2013-02-04 09:23:00,54.0,51.0,30.01,ENE,72,0.0,0.0,88,0.00,,,0.00,,2013-02-04 15:23:00,
2013-02-04 09:33:00,56.0,52.0,30.02,ENE,72,0.0,2.0,88,0.00,,,0.00,,2013-02-04 15:33:00,
2013-02-04 09:43:00,56.0,52.0,30.02,ENE,72,0.0,2.0,88,0.00,,,0.00,,2013-02-04 15:43:00,
2013-02-04 09:53:00,58.0,54.0,30.02,ENE,72,0.0,1.0,87,0.00,,,0.00,,2013-02-04 15:53:00,
2013-02-04 10:02:00,60.0,56.0,30.02,East,84,2.0,4.0,88,0.00,,,0.00,,2013-02-04 16:02:00,
2013-02-04 10:11:00,60.0,56.0,30.02,East,84,2.0,4.0,88,0.00,,,0.00,,2013-02-04 16:11:00,
2013-02-04 10:22:00,62.0,58.0,30.02,ESE,121,1.0,7.0,88,0.00,,,0.00,,2013-02-04 16:22:00,
2013-02-04 10:32:00,64.0,59.0,30.02,SSE,148,1.0,5.0,85,0.00,,,0.00,,2013-02-04 16:32:00,
2013-02-04 10:42:00,64.0,59.0,30.02,SSE,148,1.0,5.0,85,0.00,,,0.00,,2013-02-04 16:42:00,
2013-02-04 10:52:00,65.0,60.0,30.02,SSE,150,3.0,5.0,83,0.00,,,0.00,,2013-02-04 16:52:00,
2013-02-04 11:02:00,66.0,60.0,30.01,SE,140,3.0,6.0,81,0.00,,,0.00,,2013-02-04 17:02:00,
2013-02-04 11:11:00,66.0,60.0,30.01,SE,140,3.0,6.0,81,0.00,,,0.00,,2013-02-04 17:11:00,
2013-02-04 11:21:00,67.0,60.0,30.01,SE,136,5.0,9.0,79,0.00,,,0.00,,2013-02-04 17:21:00,
2013-02-04 11:32:00,68.0,61.0,30.01,SSE,157,6.0,10.0,78,0.00,,,0.00,,2013-02-04 17:32:00,
2013-02-04 11:42:00,68.0,61.0,30.01,SSE,157,6.0,10.0,78,0.00,,,0.00,,2013-02-04 17:42:00,
2013-02-04 11:52:00,69.0,61.0,30.00,South,175,3.0,7.0,77,0.00,,,0.00,,2013-02-04 17:52:00,
2013-02-04 12:03:00,69.0,61.0,29.99,ESE,113,5.0,10.0,76,0.00,,,0.00,,2013-02-04 18:03:00,
2013-02-04 12:11:00,69.0,61.0,29.99,ESE,113,5.0,10.0,76,0.00,,,0.00,,2013-02-04 18:11:00,
2013-02-04 12:22:00,69.0,61.0,29.98,SE,130,4.0,9.0,76,0.00,,,0.00,,2013-02-04 18:22:00,
2013-02-04 12:32:00,69.0,61.0,29.98,SE,134,6.0,8.0,75,0.00,,,0.00,,2013-02-04 18:32:00,
2013-02-04 12:42:00,69.0,61.0,29.98,SE,134,6.0,8.0,75,0.00,,,0.00,,2013-02-04 18:42:00,
2013-02-04 12:52:00,69.0,61.0,29.97,SE,146,2.0,6.0,76,0.00,,,0.00,,2013-02-04 18:52:00,
2013-02-04 13:02:00,69.0,62.0,29.96,SE,144,0.0,4.0,78,0.00,,,0.00,,2013-02-04 19:02:00,
2013-02-04 13:11:00,69.0,62.0,29.96,SE,144,0.0,4.0,78,0.00,,,0.00,,2013-02-04 19:11:00,
2013-02-04 13:22:00,68.0,62.0,29.96,SE,144,0.0,3.0,81,0.00,,,0.00,,2013-02-04 19:22:00,
2013-02-04 13:31:00,67.0,62.0,29.95,SE,144,0.0,3.0,83,0.00,,,0.00,,2013-02-04 19:31:00,
2013-02-04 13:42:00,67.0,62.0,29.95,SE,144,0.0,3.0,83,0.00,,,0.00,,2013-02-04 19:42:00,
2013-02-04 13:52:00,66.0,62.0,29.94,SE,144,0.0,2.0,87,0.01,,,0.01,,2013-02-04 19:52:00,
2013-02-04 14:02:00,66.0,62.0,29.93,SE,144,1.0,4.0,88,0.01,,,0.01,,2013-02-04 20:02:00,
2013-02-04 14:12:00,66.0,62.0,29.93,SE,144,1.0,4.0,88,0.01,,,0.01,,2013-02-04 20:12:00,
2013-02-04 14:21:00,65.0,61.0,29.93,SSW,205,0.0,2.0,88,0.01,,,0.01,,2013-02-04 20:21:00,
2013-02-04 14:32:00,65.0,61.0,29.92,SSW,205,0.0,0.0,88,0.01,,,0.01,,2013-02-04 20:32:00,
2013-02-04 14:42:00,65.0,61.0,29.92,SSW,205,0.0,0.0,88,0.01,,,0.01,,2013-02-04 20:42:00,
2013-02-04 14:52:00,66.0,62.0,29.92,SSW,205,1.0,3.0,88,0.00,,,0.01,,2013-02-04 20:52:00,
2013-02-04 15:02:00,66.0,62.0,29.90,South,177,2.0,6.0,87,0.00,,,0.01,,2013-02-04 21:02:00,
2013-02-04 15:11:00,66.0,62.0,29.90,South,177,2.0,6.0,87,0.00,,,0.01,,2013-02-04 21:11:00,
2013-02-04 15:22:00,66.0,62.0,29.90,SSE,154,1.0,7.0,86,0.00,,,0.01,,2013-02-04 21:22:00,
2013-02-04 15:31:00,67.0,62.0,29.90,SE,128,1.0,7.0,84,0.00,,,0.01,,2013-02-04 21:31:00,
2013-02-04 15:42:00,67.0,62.0,29.90,SE,128,1.0,7.0,84,0.00,,,0.01,,2013-02-04 21:42:00,
2013-02-04 15:52:00,67.0,62.0,29.89,SE,130,3.0,7.0,84,0.00,,,0.01,,2013-02-04 21:52:00,
2013-02-04 16:02:00,67.0,62.0,29.89,ESE,118,2.0,7.0,85,0.00,,,0.01,,2013-02-04 22:02:00,
2013-02-04 16:12:00,67.0,62.0,29.89,ESE,118,2.0,7.0,85,0.00,,,0.01,,2013-02-04 22:12:00,
2013-02-04 16:21:00,67.0,62.0,29.90,ESE,121,3.0,7.0,85,0.00,,,0.01,,2013-02-04 22:21:00,
2013-02-04 16:32:00,67.0,62.0,29.90,SE,126,4.0,6.0,84,0.00,,,0.01,,2013-02-04 22:32:00,
2013-02-04 16:42:00,67.0,62.0,29.90,SE,126,4.0,6.0,84,0.00,,,0.01,,2013-02-04 22:42:00,
2013-02-04 16:52:00,67.0,62.0,29.89,SE,128,0.0,6.0,85,0.00,,,0.01,,2013-02-04 22:52:00,
2013-02-04 17:01:00,67.0,62.0,29.89,ESE,121,1.0,5.0,85,0.00,,,0.01,,2013-02-04 23:01:00,
2013-02-04 17:11:00,67.0,62.0,29.89,ESE,121,1.0,5.0,85,0.00,,,0.01,,2013-02-04 23:11:00,
2013-02-04 17:21:00,67.0,62.0,29.89,ESE,122,3.0,4.0,85,0.00,,,0.01,,2013-02-04 23:21:00,
2013-02-04 17:32:00,66.0,61.0,29.88,ESE,119,2.0,5.0,85,0.00,,,0.01,,2013-02-04 23:32:00,
2013-02-04 17:42:00,66.0,61.0,29.88,ESE,119,2.0,5.0,85,0.00,,,0.01,,2013-02-04 23:42:00,
2013-02-04 17:52:00,66.0,62.0,29.88,ESE,120,1.0,5.0,86,0.00,,,0.01,,2013-02-04 23:52:00,
2013-02-04 18:01:00,65.0,61.0,29.88,ESE,120,0.0,2.0,86,0.00,,,0.01,,2013-02-05 00:01:00,
2013-02-04 18:11:00,65.0,61.0,29.88,ESE,120,0.0,2.0,86,0.00,,,0.01,,2013-02-05 00:11:00,
2013-02-04 18:22:00,65.0,61.0,29.88,ESE,120,1.0,4.0,87,0.00,,,0.01,,2013-02-05 00:22:00,
2013-02-04 18:31:00,65.0,61.0,29.89,ESE,120,1.0,4.0,87,0.00,,,0.01,,2013-02-05 00:31:00,
2013-02-04 18:42:00,65.0,61.0,29.89,ESE,120,1.0,4.0,87,0.00,,,0.01,,2013-02-05 00:42:00,
2013-02-04 18:52:00,65.0,61.0,29.89,ESE,120,0.0,3.0,87,0.00,,,0.01,,2013-02-05 00:52:00,
2013-02-04 19:01:00,65.0,61.0,29.90,ESE,120,0.0,3.0,87,0.00,,,0.01,,2013-02-05 01:01:00,
2013-02-04 19:11:00,65.0,61.0,29.90,ESE,120,0.0,3.0,87,0.00,,,0.01,,2013-02-05 01:11:00,
2013-02-04 19:22:00,64.0,60.0,29.90,ESE,120,0.0,3.0,87,0.00,,,0.01,,2013-02-05 01:22:00,
2013-02-04 19:32:00,64.0,60.0,29.90,ESE,120,0.0,0.0,87,0.00,,,0.01,,2013-02-05 01:32:00,
2013-02-04 19:42:00,64.0,60.0,29.90,ESE,120,0.0,0.0,87,0.00,,,0.01,,2013-02-05 01:42:00,
2013-02-04 19:52:00,64.0,60.0,29.91,ESE,120,0.0,1.0,87,0.00,,,0.01,,2013-02-05 01:52:00,
2013-02-04 20:01:00,64.0,60.0,29.91,ESE,120,0.0,1.0,88,0.00,,,0.01,,2013-02-05 02:01:00,
2013-02-04 20:11:00,64.0,60.0,29.91,ESE,120,0.0,1.0,88,0.00,,,0.01,,2013-02-05 02:11:00,
2013-02-04 20:22:00,63.0,60.0,29.91,ESE,120,0.0,2.0,89,0.00,,,0.01,,2013-02-05 02:22:00,
2013-02-04 20:32:00,63.0,60.0,29.91,ESE,120,0.0,0.0,89,0.01,,,0.02,,2013-02-05 02:32:00,
2013-02-04 20:41:00,63.0,60.0,29.91,ESE,120,0.0,0.0,89,0.01,,,0.02,,2013-02-05 02:41:00,
2013-02-04 20:52:00,62.0,58.0,29.91,ESE,120,0.0,0.0,88,0.02,,,0.03,,2013-02-05 02:52:00,
2013-02-04 21:02:00,62.0,58.0,29.91,ESE,120,0.0,0.0,88,0.02,,,0.03,,2013-02-05 03:02:00,
2013-02-04 21:11:00,62.0,58.0,29.91,ESE,120,0.0,0.0,88,0.02,,,0.03,,2013-02-05 03:11:00,
2013-02-04 21:21:00,62.0,58.0,29.92,ESE,120,0.0,0.0,88,0.02,,,0.03,,2013-02-05 03:21:00,
2013-02-04 21:32:00,62.0,58.0,29.92,ESE,120,0.0,0.0,88,0.01,,,0.03,,2013-02-05 03:32:00,
2013-02-04 21:42:00,62.0,58.0,29.92,ESE,120,0.0,0.0,88,0.01,,,0.03,,2013-02-05 03:42:00,
2013-02-04 21:52:00,62.0,58.0,29.92,ESE,120,0.0,0.0,87,0.00,,,0.03,,2013-02-05 03:52:00,
2013-02-04 22:01:00,62.0,58.0,29.92,ESE,120,0.0,0.0,86,0.00,,,0.03,,2013-02-05 04:01:00,
2013-02-04 22:11:00,62.0,58.0,29.92,ESE,120,0.0,0.0,86,0.00,,,0.03,,2013-02-05 04:11:00,
2013-02-04 22:21:00,62.0,57.0,29.91,ESE,120,0.0,3.0,85,0.00,,,0.03,,2013-02-05 04:21:00,
2013-02-04 22:32:00,63.0,58.0,29.91,ESE,120,2.0,5.0,84,0.00,,,0.03,,2013-02-05 04:32:00,
2013-02-04 22:42:00,63.0,58.0,29.91,ESE,120,2.0,5.0,84,0.00,,,0.03,,2013-02-05 04:42:00,
2013-02-04 22:52:00,63.0,58.0,29.92,ESE,120,0.0,0.0,84,0.00,,,0.03,,2013-02-05 04:52:00,
2013-02-04 23:02:00,63.0,58.0,29.93,ESE,120,0.0,0.0,85,0.00,,,0.03,,2013-02-05 05:02:00,
2013-02-04 23:11:00,63.0,58.0,29.93,ESE,120,0.0,0.0,85,0.00,,,0.03,,2013-02-05 05:11:00,
2013-02-04 23:22:00,63.0,58.0,29.92,ESE,120,1.0,4.0,84,0.08,,,0.11,,2013-02-05 05:22:00,
2013-02-04 23:32:00,63.0,58.0,29.92,ESE,120,0.0,1.0,84,0.12,,,0.15,,2013-02-05 05:32:00,
2013-02-04 23:42:00,63.0,58.0,29.92,ESE,120,0.0,1.0,84,0.12,,,0.15,,2013-02-05 05:42:00,
2013-02-04 23:52:00,63.0,58.0,29.92,ESE,120,0.0,1.0,84,0.14,,,0.17,,2013-02-05 05:52:00,